Wind_Speed
16 16 18 18 18 21 23 24 24 20 18 15 8 8 10 9 5 4 11 7 5 7 7 7 6 11 21 32 38 42 40 37 37 38 37 34 32 31 29 27 25 21 19 19 19 17 15 15 15 15 14 12 12 13 14 15 15 15 15 15 15 15 16
16 13 16 19 19 20 23 27 25 18 16 16 9 6 6 4 2 3 9 7 6 6 3 4 8 12 19 28 35 40 40 39 38 38 38 36 33 32 30 28 27 24 22 19 19 19 17 15 14 14 13 11 10 12 14 15 15 16 16 15 16 16 16
17 15 17 22 23 21 20 23 24 18 14 14 10 6 4 3 1 1 5 7 9 10 8 9 12 15 18 23 29 35 38 38 37 35 35 35 34 33 31 29 27 26 25 22 20 19 18 17 15 15 14 12 11 12 14 15 15 16 17 17 17 16 16
18 17 20 23 25 22 19 21 27 22 15 15 14 8 6 6 3 1 2 3 8 13 13 12 15 18 18 19 23 26 30 34 35 33 32 32 32 33 32 29 27 27 27 25 23 21 20 19 17 17 17 15 13 13 14 15 16 17 18 18 18 17 17
19 19 20 22 23 23 23 26 30 27 18 17 15 9 7 9 4 3 3 1 7 15 15 14 19 21 19 18 20 21 23 28 31 33 33 32 31 32 32 31 29 29 29 27 26 25 23 21 20 19 18 17 16 15 15 16 17 18 18 18 18 17 16
18 17 18 20 19 20 24 27 30 27 20 19 16 6 6 10 6 6 6 2 7 16 17 17 21 23 23 22 21 20 20 23 26 30 32 32 32 33 33 33 32 32 31 30 28 28 27 25 23 22 20 19 18 17 17 18 18 19 19 19 18 17 17
14 14 17 20 18 19 22 23 29 28 20 20 19 10 9 12 8 7 7 2 4 13 18 19 21 25 25 23 21 18 16 17 19 24 27 29 30 31 31 33 33 31 31 31 30 29 29 28 26 24 22 21 21 20 20 21 21 20 20 20 19 19 19
13 14 17 19 18 19 21 19 24 29 24 21 20 14 13 16 13 10 7 2 4 12 18 19 20 24 25 21 18 16 14 14 15 18 21 22 23 25 27 29 30 29 30 32 32 30 30 30 28 26 24 23 23 23 23 22 22 22 21 21 21 21 20
10 12 13 15 16 17 19 18 20 22 22 22 19 13 13 16 16 15 8 4 7 12 17 20 19 21 24 21 18 16 14 14 13 14 17 18 19 22 24 27 28 29 31 32 32 30 29 30 30 28 27 25 25 25 24 21 21 23 23 22 22 22 22
4 6 7 10 14 15 18 20 19 16 16 19 18 15 15 14 15 16 11 6 10 13 17 20 19 19 23 22 18 16 14 13 12 13 14 16 18 19 21 23 26 29 31 32 33 32 31 30 30 28 27 27 26 25 24 22 21 23 25 24 23 23 23
6 5 7 11 13 15 17 18 17 14 13 16 17 17 17 16 15 17 15 10 12 15 18 22 22 21 22 21 20 19 17 14 13 13 13 15 16 16 17 18 21 24 29 33 35 35 33 30 28 27 27 27 26 25 24 23 23 23 24 25 26 26 25
10 7 6 11 12 13 14 16 16 14 12 13 14 15 16 17 16 16 17 16 13 13 16 21 25 25 23 21 21 20 18 16 15 14 15 15 16 15 13 12 14 18 23 27 29 30 31 29 26 25 27 27 26 26 26 26 25 24 24 26 29 30 29
11 9 6 8 11 12 12 14 15 15 14 13 11 10 11 14 16 15 17 17 15 13 14 19 24 26 24 21 20 19 19 17 14 13 15 16 16 15 13 10 12 16 19 21 23 25 28 24 21 22 24 24 25 26 27 27 26 25 25 27 30 31 30
10 10 9 6 9 12 13 14 14 15 15 13 13 11 9 12 15 15 14 15 16 14 12 17 23 24 22 20 19 19 18 16 14 13 14 15 15 14 14 14 14 16 18 19 19 22 22 18 18 20 20 21 24 26 27 27 24 24 26 28 30 30 28
6 7 8 8 7 9 13 14 13 14 13 12 13 13 12 12 15 14 11 12 15 14 11 15 23 24 22 21 20 18 16 14 14 13 13 14 13 11 12 16 17 14 15 16 17 18 18 16 17 20 20 21 24 25 24 23 21 22 25 27 29 28 26
5 2 4 8 8 8 12 12 11 11 10 11 12 12 13 14 15 15 15 14 15 15 15 17 23 25 24 22 19 17 15 14 13 12 12 12 11 8 7 11 16 16 15 17 18 18 18 17 18 19 21 21 22 21 20 20 19 21 23 25 26 26 25
7 5 3 3 7 6 6 5 7 7 8 9 10 11 12 13 12 11 13 13 15 17 18 19 24 28 26 21 18 16 13 12 10 9 9 9 9 9 8 8 12 17 17 18 20 19 17 18 18 19 20 19 19 19 18 18 17 18 20 22 23 22 22
3 5 5 1 3 2 1 3 4 5 6 8 9 10 11 12 10 8 7 9 14 18 19 21 25 28 25 19 17 15 11 7 7 7 9 14 16 15 12 9 11 17 17 17 19 20 18 17 17 18 18 17 17 17 16 15 14 14 15 17 17 16 16
3 3 1 1 1 1 2 1 3 3 5 7 8 8 11 11 10 8 6 8 14 18 19 22 25 25 23 20 17 16 12 7 7 6 8 14 19 19 16 14 13 15 16 16 17 18 18 17 16 15 15 15 15 15 14 13 13 13 12 13 13 13 12
9 3 5 3 0 4 4 3 3 4 5 7 8 9 11 12 11 10 8 10 14 18 20 24 26 24 23 22 19 16 14 11 10 8 7 9 14 17 19 19 16 14 15 16 16 15 15 15 15 15 15 15 14 14 13 13 13 14 13 13 13 12 11
16 7 4 6 2 3 4 4 5 6 6 6 7 9 11 13 12 11 11 12 15 19 22 25 26 24 24 25 22 18 15 13 11 9 8 7 8 10 14 17 19 19 19 18 16 14 13 14 15 15 15 15 15 14 13 13 13 14 15 15 15 14 13
20 18 8 4 3 1 3 5 5 6 7 6 6 8 11 12 12 12 13 14 16 20 24 27 28 26 26 28 26 22 18 15 11 8 8 8 8 7 7 9 14 17 17 16 13 10 10 11 12 12 13 14 14 14 13 12 11 12 13 14 14 14 13
19 21 14 7 6 5 5 7 6 5 7 6 5 7 10 12 13 13 13 13 15 19 24 26 28 29 30 29 27 24 20 16 13 9 7 7 7 7 6 6 7 9 10 9 8 8 7 8 8 9 10 10 11 12 11 10 9 9 10 10 11 11 10
14 19 20 19 18 14 10 8 8 7 6 6 5 6 9 12 14 13 13 13 15 18 22 24 25 28 30 28 24 21 18 16 13 11 7 5 5 6 6 6 7 7 8 8 8 8 8 8 8 8 8 8 8 8 8 8 8 8 9 9 9 9 9
10 13 16 17 16 17 16 12 10 10 9 8 9 8 8 11 14 14 14 15 16 18 20 22 23 25 26 24 19 17 17 15 13 10 8 6 6 6 7 8 8 9 9 10 10 10 9 9 8 8 8 8 8 7 7 7 7 7 7 7 8 8 8
7 7 9 8 6 9 15 16 12 10 9 7 10 11 9 9 12 13 15 17 19 19 18 19 21 21 22 21 20 19 18 17 14 10 8 7 6 6 6 7 8 9 9 10 10 10 10 10 10 10 10 10 10 9 9 8 8 8 8 8 9 9 10
4 3 3 4 2 2 9 13 11 10 8 6 9 11 10 8 9 11 14 18 21 21 20 19 20 20 20 21 21 19 18 18 16 13 10 9 8 6 5 4 5 7 7 8 9 10 11 12 12 13 13 14 14 13 12 12 11 11 11 11 12 12 13
2 1 1 2 1 0 4 8 8 8 9 8 9 10 8 6 6 9 14 19 23 24 23 20 18 20 22 22 20 19 18 19 18 14 12 12 10 7 4 3 4 6 7 7 9 10 11 13 14 15 17 17 18 18 17 16 15 15 15 15 15 15 16
0 0 1 2 3 2 1 4 5 6 8 9 9 8 7 6 6 8 13 19 22 24 24 21 20 21 23 22 20 20 20 17 14 10 8 9 8 6 5 5 7 9 10 12 13 15 15 16 17 18 19 20 21 21 21 21 20 20 19 19 19 19 19
1 2 3 4 5 6 5 5 4 4 5 6 6 6 7 6 6 8 12 18 21 23 22 22 21 22 22 22 22 22 21 17 14 11 10 10 10 8 7 8 10 12 13 15 16 18 18 19 20 20 21 22 23 24 25 25 25 24 24 24 23 23 23
2 3 4 4 5 7 8 8 7 6 5 5 6 6 7 7 7 9 13 16 20 22 23 22 21 21 23 24 24 23 22 20 18 17 16 16 14 11 11 12 13 14 15 15 16 17 18 19 20 21 22 23 25 26 27 28 28 28 28 27 27 27 27
4 4 4 5 6 7 8 8 8 8 7 6 6 7 7 7 7 9 13 16 18 22 25 27 26 24 23 23 24 24 24 23 22 22 21 20 17 13 13 15 16 17 18 19 19 20 20 20 21 21 22 23 24 25 27 28 29 30 30 30 29 29 29
7 7 6 6 7 8 8 8 9 9 10 9 9 8 8 8 7 9 12 16 18 21 25 26 24 21 20 20 22 23 23 24 27 29 28 23 17 11 12 16 18 20 21 22 23 23 23 23 23 23 23 23 24 24 25 26 28 29 30 30 31 30 30
9 9 8 7 7 8 9 9 10 11 12 13 13 12 11 11 11 11 12 14 15 17 19 19 18 17 18 18 19 18 18 20 23 25 23 17 11 10 14 19 21 22 23 24 25 26 26 26 25 25 25 25 25 25 25 25 26 27 28 29 30 31 31
13 12 11 10 9 9 9 10 11 12 14 15 16 16 15 15 15 15 15 15 15 14 13 14 15 16 17 16 16 16 16 15 16 18 18 16 14 16 21 24 24 25 25 26 28 29 29 28 28 27 27 27 27 27 27 27 27 27 28 28 29 29 30
16 15 15 14 13 12 12 12 13 14 16 17 18 19 19 19 19 19 19 19 18 16 14 12 13 15 16 17 17 18 18 18 18 19 19 19 20 23 25 26 26 27 27 29 30 31 30 30 29 29 29 29 29 28 28 28 27 27 28 28 28 28 28
17 18 18 17 16 16 16 16 16 17 18 19 20 21 22 23 23 23 22 22 22 20 18 16 15 16 17 18 20 20 21 21 20 20 20 22 24 26 27 28 28 28 28 29 30 30 30 29 29 29 29 29 29 29 28 27 26 26 26 27 27 27 26
Wind_Direction
208 206 208 210 206 198 196 201 208 215 220 219 193 163 172 160 122 167 188 206 254 231 263 282 227 201 201 203 207 210 212 213 211 209 210 212 214 214 215 215 212 207 200 192 185 182 180 182 186 186 186 189 196 204 207 210 212 211 209 206 201 200 201
203 200 202 208 212 207 199 198 205 211 211 213 196 137 137 139 81 197 198 215 229 197 188 215 197 191 194 200 206 209 212 214 212 210 210 212 215 217 219 218 216 213 208 200 191 188 186 184 187 187 184 186 199 208 206 208 213 213 212 211 207 204 204
203 200 199 201 207 212 209 204 202 198 195 200 188 146 143 148 69 263 217 223 224 203 190 195 195 192 195 199 204 209 213 214 213 211 212 215 218 220 221 221 219 217 214 208 200 195 194 191 190 190 188 192 206 216 210 205 209 211 209 210 210 208 207
198 193 195 195 192 195 205 205 200 199 201 199 192 183 175 166 160 239 223 236 228 214 208 203 195 195 201 202 203 206 210 211 213 214 216 220 223 223 223 223 222 219 218 215 210 206 204 200 197 195 195 198 208 221 220 211 210 211 209 208 208 208 208
186 182 186 189 186 187 193 194 193 195 199 197 194 196 184 174 170 159 148 258 228 211 208 204 197 195 200 204 204 203 203 206 210 214 218 221 223 224 224 224 224 222 220 219 217 216 213 207 204 202 201 203 209 220 225 220 215 215 214 211 208 208 208
178 179 181 181 183 188 190 192 192 190 192 191 186 181 186 187 191 176 168 216 219 203 200 201 200 199 200 202 202 202 205 209 213 215 217 219 220 222 223 224 225 224 224 223 222 221 217 211 207 206 206 207 211 218 223 223 221 218 217 215 212 210 211
173 179 179 173 171 178 184 191 194 193 197 197 188 184 186 182 187 193 186 213 224 202 199 199 201 204 205 204 203 206 213 218 219 219 219 218 220 222 223 225 227 227 227 227 226 224 220 214 210 209 210 211 215 219 221 222 222 220 218 217 215 214 213
152 155 166 167 164 172 179 184 189 194 205 208 201 202 197 184 182 184 177 208 231 205 202 203 203 205 206 206 208 213 219 220 218 218 220 222 224 225 226 229 231 229 228 229 229 226 222 219 216 214 213 214 219 224 225 224 224 225 222 219 218 218 217
136 140 149 158 161 171 182 185 185 192 204 208 206 204 197 190 189 188 181 190 204 200 202 204 205 206 204 201 207 212 212 214 214 208 211 218 223 224 226 230 232 232 232 233 234 231 227 224 223 222 221 222 225 228 230 229 229 229 228 226 223 221 221
133 145 152 160 164 170 177 181 183 187 196 204 206 198 190 193 197 197 196 184 186 195 199 199 203 208 204 198 200 206 201 201 204 198 197 205 213 219 224 227 230 230 231 234 237 237 233 229 227 226 226 229 232 233 234 233 231 230 229 229 228 226 224
104 118 150 157 164 172 176 179 185 188 186 193 202 200 197 201 203 205 210 205 197 199 199 198 200 205 205 199 195 200 200 195 194 191 192 201 209 217 223 225 226 225 227 231 236 238 237 234 232 231 230 232 235 236 236 235 235 234 231 230 229 227 226
89 87 142 159 163 173 181 183 186 189 184 184 192 199 204 208 207 210 217 219 218 213 206 204 203 201 202 199 195 198 202 200 196 189 190 198 204 211 215 216 220 222 227 233 234 234 235 235 235 237 237 237 238 238 236 235 237 238 236 234 232 227 223
92 86 104 157 172 174 178 181 181 186 192 193 194 197 206 211 214 222 226 226 228 224 215 212 206 200 198 196 195 199 202 204 202 196 198 201 205 211 207 198 208 218 227 235 236 232 232 228 228 234 236 237 238 237 237 238 238 238 238 239 240 235 227
95 93 92 124 169 176 174 174 178 183 190 196 201 203 207 208 214 223 228 228 226 223 221 213 201 194 194 193 194 197 202 207 207 202 205 207 211 217 207 193 199 209 213 223 233 236 234 221 214 224 230 232 235 237 240 241 241 239 239 241 244 243 235
102 92 103 109 135 172 176 172 175 180 183 190 198 204 209 207 209 212 209 213 216 212 212 208 198 193 193 192 191 193 198 206 209 208 211 215 219 224 207 193 194 195 197 204 215 227 229 214 205 214 222 228 234 238 241 241 240 240 240 241 245 246 241
175 101 98 96 106 155 177 172 166 170 175 185 191 198 208 209 207 201 194 201 210 203 197 200 199 197 195 191 190 193 196 200 207 215 225 228 226 221 212 198 190 187 187 191 195 205 212 209 208 213 217 222 229 234 235 234 232 233 236 237 240 243 241
188 224 242 99 109 138 165 147 137 151 168 181 185 190 200 204 206 206 207 214 213 202 197 197 198 197 194 189 186 190 195 203 214 221 214 203 193 194 214 221 199 192 190 187 188 194 199 201 207 214 218 221 227 232 232 231 229 228 231 234 235 236 239
159 227 239 222 98 103 62 80 111 144 166 173 176 181 188 192 195 207 227 224 208 202 202 201 197 192 185 181 183 189 193 200 211 207 182 174 176 182 192 201 191 187 189 186 187 193 198 200 204 211 217 219 223 227 227 225 223 219 222 229 233 235 240
219 301 291 105 86 198 207 120 117 151 172 177 181 185 187 185 181 183 202 211 203 203 205 199 191 182 175 176 184 191 186 166 155 161 163 171 178 181 185 191 185 178 185 196 199 200 203 205 202 204 210 211 213 218 217 213 212 212 215 222 229 234 239
213 321 21 29 229 182 169 154 158 173 180 187 197 203 195 183 174 176 188 198 200 203 201 191 183 180 179 179 180 183 182 166 146 139 137 154 173 182 190 199 199 190 193 206 214 214 213 211 205 202 206 207 209 215 218 215 214 217 222 224 225 228 234
203 213 316 329 309 161 159 179 187 184 187 189 196 208 202 184 176 180 184 189 199 203 198 187 180 180 183 182 180 179 181 174 158 140 120 120 148 172 184 195 204 208 211 219 227 230 225 218 212 208 206 207 210 216 219 218 216 219 224 228 228 227 227
204 209 233 308 325 235 213 213 197 181 187 190 190 206 208 194 184 186 187 193 204 205 197 188 182 183 186 186 185 185 181 173 161 138 116 116 132 148 161 181 198 209 216 223 229 228 217 211 210 209 207 206 208 212 213 213 211 213 218 226 232 233 231
208 209 209 215 240 262 248 229 225 200 189 197 205 221 224 208 192 189 190 198 211 212 204 195 188 188 193 192 189 189 183 171 159 145 121 117 134 148 154 157 172 190 199 204 202 194 189 193 197 199 198 199 201 202 204 206 205 204 206 212 221 228 227
202 206 208 214 229 244 248 240 237 227 214 208 201 216 227 213 202 198 193 198 215 220 214 206 199 198 201 200 194 191 185 172 163 157 145 133 138 153 166 165 165 174 180 181 181 181 183 187 191 191 189 188 190 192 196 200 201 200 199 200 205 213 216
178 194 202 210 222 232 238 242 240 228 223 216 207 215 228 217 211 208 199 201 215 221 217 214 211 208 209 212 213 207 193 181 172 165 160 164 162 159 171 180 184 187 189 189 187 187 188 192 198 202 202 198 196 198 203 209 214 217 216 213 212 215 220
159 175 189 193 196 214 223 231 235 224 220 226 223 225 234 233 228 222 210 206 213 219 222 225 226 220 214 216 221 216 202 193 188 177 166 166 163 158 168 182 192 199 203 204 204 205 205 207 211 215 219 220 219 217 218 222 229 236 239 241 240 239 240
168 158 168 174 146 162 198 207 213 210 213 231 228 222 230 244 243 237 225 215 213 218 223 229 234 234 228 222 219 214 205 196 191 187 181 173 163 156 164 183 202 211 216 222 226 228 229 229 231 231 233 235 234 233 233 234 236 242 246 249 252 253 255
179 108 78 172 201 162 183 192 198 202 207 219 227 230 240 252 246 238 231 223 218 220 226 231 236 238 237 233 229 226 217 202 193 194 194 184 174 169 182 220 244 245 248 253 255 256 254 252 251 248 247 247 245 245 246 245 245 248 249 251 254 256 258
150 314 311 243 248 278 240 208 208 206 206 218 234 243 244 243 243 241 235 229 225 227 230 235 237 237 238 243 249 251 245 228 216 223 223 204 198 206 226 255 264 263 266 269 270 272 271 269 267 264 261 259 257 256 256 256 256 258 257 257 257 257 259
255 260 267 268 266 269 272 263 242 221 208 208 216 222 216 214 231 244 237 231 230 233 234 235 234 232 233 240 247 251 251 241 227 230 239 239 239 244 252 265 268 269 274 276 276 277 275 272 270 269 266 264 262 261 261 262 263 264 265 265 264 262 262
264 261 256 263 268 266 267 270 266 257 236 206 196 201 200 196 212 236 236 227 228 235 236 234 233 231 232 239 243 246 248 242 226 219 224 231 238 246 253 258 264 270 275 277 277 277 275 272 269 268 266 265 263 262 262 263 264 265 266 267 268 268 267
264 267 263 266 271 270 271 273 273 272 265 243 220 209 199 186 198 226 233 228 229 234 233 229 227 229 234 241 247 248 250 244 231 221 220 220 223 231 243 250 257 265 269 271 273 275 275 274 272 270 269 268 266 264 263 263 263 264 264 266 268 269 270
261 264 269 272 271 271 275 276 276 276 274 266 253 235 219 203 198 213 228 233 234 237 239 238 239 243 247 249 251 253 254 249 238 227 220 215 214 225 243 250 256 263 268 272 276 278 279 279 277 275 275 274 272 269 267 265 265 265 265 266 266 267 268
262 262 266 267 264 267 274 275 271 270 270 269 265 257 244 232 220 214 218 228 236 239 241 240 241 247 251 251 252 256 259 257 247 235 227 223 223 235 249 255 259 264 270 275 279 282 283 283 280 279 278 277 275 274 272 270 269 268 267 267 266 266 266
257 257 257 255 251 251 256 260 261 262 264 265 265 263 258 251 243 233 224 223 229 236 239 235 232 236 241 244 247 249 247 245 241 236 238 242 242 241 247 253 259 266 272 277 280 282 283 282 280 279 277 276 275 274 274 273 272 270 268 267 266 265 265
256 257 257 255 252 249 247 248 250 252 255 258 261 262 260 258 254 249 242 235 231 230 232 235 237 238 238 237 237 237 236 235 233 232 235 238 238 239 245 251 258 265 271 274 277 279 279 278 277 275 274 274 274 274 273 273 272 270 268 266 264 264 264
258 258 258 257 255 253 250 248 245 243 245 249 252 254 256 257 257 254 251 247 242 235 227 224 228 233 235 236 236 236 237 238 237 234 233 235 238 242 248 255 262 266 269 271 273 275 275 276 275 273 272 271 270 270 270 270 269 268 266 264 262 262 262
Height
3134 3136 3137 3139 3140 3141 3144 3145 3147 3149 3152 3153 3154 3156 3159 3160 3161 3164 3163 3162 3162 3162 3162 3161 3162 3162 3164 3167 3170 3173 3176 3178 3181 3184 3187 3190 3193 3196 3198 3200 3203 3206 3208 3210 3211 3213 3215 3217 3219 3221 3222 3224 3225 3227 3228 3229 3230 3232 3233 3234 3236 3236 3237
3132 3134 3136 3138 3139 3140 3141 3143 3146 3149 3152 3153 3152 3155 3159 3160 3161 3162 3162 3162 3161 3161 3162 3161 3162 3162 3163 3165 3168 3171 3175 3177 3180 3183 3186 3189 3192 3194 3197 3199 3202 3205 3207 3209 3211 3212 3214 3216 3219 3221 3222 3224 3225 3226 3227 3228 3229 3231 3233 3234 3235 3236 3237
3131 3132 3134 3135 3137 3139 3140 3143 3146 3148 3149 3150 3151 3153 3157 3159 3162 3162 3161 3161 3161 3160 3161 3161 3162 3162 3163 3165 3167 3170 3173 3175 3178 3182 3185 3188 3190 3193 3195 3198 3201 3203 3206 3208 3210 3211 3213 3215 3218 3220 3221 3223 3224 3225 3226 3227 3228 3229 3231 3232 3234 3235 3236
3130 3131 3132 3132 3134 3136 3139 3142 3144 3145 3147 3148 3149 3151 3153 3155 3160 3161 3160 3160 3159 3158 3160 3161 3161 3162 3163 3164 3166 3168 3171 3174 3178 3181 3184 3186 3189 3191 3193 3196 3199 3202 3204 3207 3208 3210 3212 3214 3217 3218 3220 3222 3223 3224 3225 3226 3227 3228 3229 3231 3232 3234 3235
3129 3130 3131 3132 3133 3134 3137 3139 3141 3143 3145 3147 3148 3150 3151 3152 3155 3157 3158 3158 3156 3155 3159 3160 3160 3161 3163 3164 3165 3168 3171 3174 3177 3180 3182 3185 3187 3189 3191 3194 3197 3199 3202 3204 3206 3208 3210 3213 3215 3217 3219 3220 3222 3223 3224 3225 3226 3227 3228 3230 3231 3233 3234
3128 3129 3131 3132 3133 3134 3135 3137 3139 3141 3143 3144 3146 3149 3150 3150 3151 3153 3154 3154 3153 3154 3157 3158 3159 3161 3162 3163 3165 3168 3171 3173 3176 3178 3180 3183 3186 3187 3189 3191 3193 3196 3199 3201 3203 3205 3208 3210 3212 3214 3217 3219 3221 3222 3223 3223 3225 3226 3227 3229 3230 3231 3233
3128 3129 3131 3132 3133 3134 3136 3137 3138 3141 3142 3142 3143 3145 3147 3149 3150 3151 3152 3152 3152 3154 3156 3156 3158 3160 3161 3164 3166 3169 3171 3173 3175 3177 3179 3181 3184 3185 3188 3189 3191 3194 3196 3198 3200 3203 3205 3208 3210 3212 3215 3217 3219 3220 3221 3222 3223 3224 3226 3227 3229 3230 3231
3128 3129 3131 3132 3133 3135 3136 3137 3138 3139 3141 3142 3143 3144 3145 3147 3148 3149 3151 3152 3152 3154 3155 3155 3157 3159 3162 3165 3167 3169 3170 3172 3174 3176 3177 3180 3182 3184 3186 3188 3190 3193 3195 3196 3198 3201 3203 3206 3208 3210 3213 3215 3216 3218 3220 3221 3222 3223 3224 3226 3227 3228 3230
3128 3129 3130 3131 3132 3133 3135 3136 3137 3138 3139 3141 3142 3144 3145 3145 3146 3147 3149 3151 3151 3152 3154 3155 3156 3158 3161 3165 3166 3167 3169 3170 3172 3174 3177 3178 3180 3181 3183 3186 3189 3191 3192 3194 3196 3199 3202 3204 3206 3208 3211 3213 3214 3216 3219 3220 3221 3222 3223 3224 3225 3227 3228
3128 3129 3129 3130 3131 3132 3133 3134 3136 3137 3138 3139 3141 3142 3143 3144 3145 3146 3147 3148 3150 3151 3153 3154 3155 3157 3160 3163 3165 3166 3167 3169 3171 3173 3175 3176 3177 3179 3181 3184 3186 3189 3191 3193 3194 3196 3198 3201 3204 3207 3209 3211 3212 3215 3217 3218 3218 3220 3222 3223 3224 3225 3226
3127 3127 3128 3129 3130 3131 3132 3133 3135 3136 3137 3138 3140 3141 3142 3142 3144 3144 3145 3146 3148 3150 3151 3152 3154 3156 3159 3162 3164 3165 3167 3169 3171 3172 3173 3174 3176 3177 3180 3183 3185 3188 3190 3191 3193 3195 3196 3199 3203 3206 3207 3209 3210 3212 3214 3215 3216 3217 3219 3221 3221 3223 3224
3127 3128 3128 3128 3129 3130 3131 3132 3133 3135 3136 3137 3138 3139 3140 3142 3143 3143 3144 3145 3146 3148 3149 3150 3152 3154 3157 3160 3163 3164 3166 3169 3171 3172 3173 3174 3175 3177 3180 3182 3184 3186 3188 3188 3191 3194 3196 3199 3203 3204 3205 3206 3207 3208 3209 3211 3213 3215 3217 3218 3218 3218 3221
3128 3128 3128 3128 3129 3129 3130 3132 3133 3134 3135 3137 3138 3138 3139 3141 3141 3142 3143 3144 3145 3147 3148 3149 3151 3154 3157 3160 3163 3164 3166 3168 3170 3172 3173 3174 3175 3177 3179 3182 3184 3185 3186 3186 3188 3190 3193 3198 3201 3201 3201 3203 3204 3204 3206 3207 3210 3212 3214 3214 3213 3215 3219
3129 3129 3129 3129 3129 3129 3130 3131 3132 3133 3135 3136 3137 3138 3139 3139 3140 3141 3143 3143 3145 3146 3148 3149 3152 3155 3157 3160 3162 3164 3166 3168 3170 3171 3173 3173 3174 3176 3179 3181 3183 3184 3184 3185 3187 3188 3191 3197 3199 3198 3199 3202 3202 3202 3203 3205 3207 3209 3210 3210 3209 3211 3217
3130 3130 3130 3129 3129 3130 3130 3131 3132 3133 3134 3135 3136 3137 3138 3138 3139 3140 3141 3142 3144 3146 3148 3149 3152 3154 3156 3159 3162 3164 3166 3167 3169 3170 3171 3172 3173 3175 3177 3180 3182 3182 3184 3186 3187 3187 3189 3194 3197 3197 3198 3200 3200 3200 3201 3202 3205 3206 3208 3208 3207 3209 3215
3130 3130 3131 3130 3130 3130 3130 3131 3132 3132 3133 3134 3135 3136 3137 3138 3138 3139 3140 3141 3142 3144 3146 3148 3151 3153 3156 3159 3161 3164 3165 3167 3168 3169 3170 3170 3171 3173 3175 3179 3181 3182 3183 3185 3186 3187 3187 3190 3193 3195 3197 3198 3198 3198 3199 3200 3202 3204 3205 3206 3207 3209 3212
3131 3131 3131 3131 3131 3131 3132 3132 3132 3133 3133 3134 3135 3135 3136 3137 3138 3139 3139 3140 3141 3143 3144 3146 3148 3151 3155 3158 3161 3163 3165 3166 3167 3168 3168 3170 3171 3173 3174 3177 3179 3181 3182 3184 3185 3186 3187 3189 3191 3192 3194 3196 3197 3197 3198 3199 3200 3202 3204 3204 3205 3207 3208
3131 3132 3133 3132 3133 3133 3133 3133 3133 3133 3133 3134 3134 3135 3136 3137 3138 3138 3139 3140 3141 3142 3143 3145 3147 3150 3155 3159 3161 3163 3164 3165 3166 3167 3168 3169 3172 3174 3175 3176 3178 3179 3182 3183 3184 3185 3187 3188 3189 3191 3193 3195 3196 3196 3197 3198 3199 3201 3203 3202 3202 3204 3205
3131 3132 3133 3134 3136 3135 3134 3134 3133 3133 3134 3134 3134 3135 3136 3136 3137 3138 3139 3139 3141 3142 3144 3146 3148 3152 3156 3159 3161 3162 3163 3164 3165 3166 3167 3169 3172 3174 3176 3177 3177 3178 3180 3182 3184 3185 3186 3187 3189 3191 3192 3193 3194 3195 3196 3198 3199 3200 3201 3201 3202 3202 3203
3130 3132 3133 3134 3135 3135 3134 3134 3134 3134 3134 3134 3134 3135 3136 3136 3136 3137 3138 3139 3140 3142 3144 3147 3150 3153 3155 3157 3159 3161 3162 3163 3164 3165 3167 3169 3171 3173 3175 3177 3178 3179 3180 3182 3183 3184 3185 3186 3188 3190 3191 3191 3192 3194 3195 3196 3197 3198 3199 3200 3201 3202 3202
3129 3132 3133 3133 3134 3134 3133 3134 3134 3134 3134 3134 3134 3135 3136 3136 3136 3137 3138 3139 3140 3142 3144 3147 3151 3153 3155 3156 3158 3160 3161 3162 3163 3165 3167 3169 3171 3172 3174 3175 3177 3179 3180 3182 3182 3183 3184 3185 3186 3188 3189 3191 3192 3193 3194 3195 3196 3197 3197 3198 3199 3200 3201
3128 3131 3133 3135 3135 3135 3134 3134 3134 3134 3135 3135 3135 3135 3136 3136 3137 3137 3137 3138 3140 3142 3144 3147 3150 3152 3153 3154 3156 3158 3160 3161 3163 3165 3167 3169 3170 3171 3173 3174 3176 3178 3180 3181 3181 3182 3182 3183 3184 3186 3188 3190 3191 3192 3193 3193 3194 3195 3196 3196 3197 3198 3199
3128 3130 3132 3134 3135 3135 3135 3134 3134 3135 3135 3135 3136 3136 3136 3137 3137 3137 3137 3138 3140 3142 3143 3146 3149 3150 3150 3152 3154 3156 3158 3161 3163 3165 3167 3168 3170 3171 3172 3173 3175 3177 3179 3180 3181 3181 3182 3183 3184 3185 3186 3188 3189 3190 3191 3192 3193 3194 3195 3195 3196 3196 3197
3128 3129 3130 3132 3134 3135 3135 3135 3134 3135 3135 3136 3136 3137 3136 3136 3138 3138 3138 3139 3140 3142 3144 3146 3148 3149 3150 3151 3154 3156 3158 3161 3163 3164 3166 3168 3170 3171 3172 3173 3175 3177 3179 3180 3181 3182 3182 3183 3184 3184 3185 3187 3188 3189 3190 3191 3192 3193 3194 3195 3195 3196 3196
3128 3129 3130 3131 3133 3134 3135 3135 3135 3135 3136 3136 3136 3136 3136 3137 3138 3139 3139 3140 3141 3143 3145 3146 3148 3150 3152 3153 3155 3157 3159 3161 3162 3164 3166 3168 3169 3171 3172 3174 3175 3177 3179 3180 3181 3182 3183 3184 3184 3185 3185 3186 3187 3188 3189 3190 3191 3191 3192 3193 3194 3195 3195
3128 3129 3130 3131 3132 3133 3134 3135 3136 3136 3136 3136 3135 3136 3137 3137 3138 3139 3140 3140 3142 3143 3145 3146 3148 3150 3152 3154 3155 3158 3160 3161 3163 3165 3166 3168 3169 3171 3172 3173 3175 3177 3178 3180 3181 3182 3183 3183 3184 3184 3185 3185 3186 3187 3188 3189 3189 3190 3191 3191 3192 3193 3194
3128 3129 3130 3131 3132 3132 3133 3134 3135 3136 3136 3136 3136 3136 3137 3137 3138 3139 3140 3141 3142 3143 3145 3146 3148 3150 3152 3153 3155 3157 3160 3162 3163 3164 3165 3167 3168 3170 3171 3173 3174 3176 3177 3178 3179 3180 3181 3182 3183 3183 3184 3184 3185 3185 3186 3187 3188 3188 3189 3190 3190 3191 3192
3128 3129 3130 3130 3131 3132 3132 3133 3134 3134 3135 3135 3135 3136 3136 3137 3137 3138 3139 3140 3141 3143 3145 3146 3148 3150 3151 3152 3154 3156 3159 3161 3162 3163 3164 3165 3167 3168 3170 3172 3173 3174 3175 3176 3177 3178 3178 3179 3180 3181 3181 3182 3182 3183 3184 3185 3185 3186 3187 3188 3188 3189 3190
3128 3129 3129 3130 3130 3131 3132 3132 3132 3133 3134 3134 3134 3135 3135 3136 3137 3137 3138 3139 3141 3142 3144 3146 3148 3149 3150 3152 3155 3156 3158 3160 3162 3163 3164 3165 3167 3168 3169 3170 3171 3172 3173 3174 3174 3175 3176 3177 3177 3178 3179 3180 3180 3180 3181 3181 3182 3183 3184 3185 3186 3187 3188
3128 3129 3129 3129 3130 3130 3131 3131 3132 3132 3133 3134 3134 3134 3135 3135 3136 3137 3138 3139 3140 3141 3142 3144 3146 3148 3149 3152 3154 3155 3157 3159 3161 3162 3163 3165 3167 3167 3167 3168 3169 3170 3171 3171 3172 3173 3174 3174 3175 3176 3176 3177 3178 3178 3179 3179 3179 3180 3181 3182 3183 3184 3185
3128 3129 3129 3129 3129 3129 3130 3130 3131 3132 3132 3133 3133 3133 3134 3134 3135 3137 3137 3138 3140 3140 3141 3142 3144 3145 3147 3149 3151 3153 3155 3156 3158 3159 3161 3164 3165 3166 3166 3167 3167 3168 3169 3169 3170 3170 3171 3171 3172 3173 3173 3174 3175 3176 3176 3177 3177 3178 3178 3179 3180 3180 3181
3128 3128 3129 3129 3129 3129 3129 3130 3130 3131 3132 3132 3133 3133 3133 3133 3135 3136 3136 3137 3138 3139 3139 3139 3139 3141 3143 3146 3149 3151 3152 3154 3155 3156 3157 3160 3162 3164 3165 3165 3166 3166 3167 3167 3167 3168 3168 3168 3169 3169 3170 3171 3172 3172 3173 3174 3174 3175 3175 3176 3176 3177 3177
3127 3127 3128 3128 3129 3129 3129 3130 3130 3131 3131 3132 3132 3133 3134 3133 3134 3135 3135 3136 3137 3137 3138 3139 3139 3140 3142 3145 3147 3148 3150 3151 3152 3152 3154 3156 3158 3161 3163 3164 3164 3164 3164 3164 3164 3165 3165 3165 3166 3166 3167 3167 3168 3169 3170 3170 3171 3171 3172 3172 3173 3173 3174
3126 3126 3127 3127 3128 3129 3129 3130 3130 3130 3130 3131 3131 3132 3133 3133 3133 3134 3134 3135 3136 3136 3137 3139 3140 3141 3142 3144 3145 3146 3147 3148 3149 3150 3152 3154 3157 3159 3161 3162 3162 3162 3162 3162 3162 3162 3162 3163 3163 3163 3164 3164 3165 3166 3166 3167 3168 3168 3168 3168 3169 3169 3170
3125 3125 3125 3126 3126 3127 3128 3128 3129 3129 3130 3130 3130 3130 3131 3132 3132 3133 3133 3133 3134 3135 3136 3137 3138 3140 3141 3142 3143 3144 3145 3147 3148 3149 3151 3153 3155 3157 3159 3160 3160 3160 3160 3159 3159 3159 3160 3160 3160 3160 3160 3161 3162 3163 3163 3164 3164 3165 3165 3165 3165 3166 3166
3123 3123 3124 3124 3125 3125 3126 3126 3127 3128 3128 3128 3129 3129 3129 3130 3130 3131 3131 3131 3132 3132 3134 3135 3137 3138 3140 3141 3142 3143 3144 3145 3146 3147 3148 3150 3152 3154 3156 3157 3157 3157 3157 3157 3156 3156 3157 3157 3157 3157 3157 3158 3159 3160 3160 3161 3161 3161 3162 3162 3162 3162 3163
3121 3121 3122 3122 3123 3123 3123 3124 3125 3125 3126 3126 3127 3127 3127 3128 3128 3128 3129 3129 3129 3130 3131 3132 3134 3136 3137 3139 3140 3141 3142 3143 3144 3145 3146 3147 3149 3151 3153 3153 3154 3154 3154 3153 3153 3153 3153 3153 3153 3154 3154 3155 3156 3156 3157 3158 3158 3158 3159 3159 3159 3159 3160